Location: Buena Vista
(37.7110°N, 119.7938°W)
Time: 13:08:33
(UTC+00:00)

Envisat - Pass Details

Date: 17 August 2024
Orbit: 762 x 764 km, 98.3° (Epoch: 16 September)

Event Time Altitude Azimuth Distance (km) Brightness Sun altitude
Rises 12:26:26 0° 354° (N) 3,233 6.5 -10.2°
Reaches altitude 10° 12:29:27 10° 335° (NNW) 2,302 5.5 -9.6°
Maximum altitude 12:32:40 17° 296° (WNW) 1,847 4.6 -9.0°
Drops below altitude 10° 12:35:52 10° 256° (WSW) 2,293 4.8 -8.5°
Enters shadow 12:35:53 10° 256° (WSW) 2,294 4.8 -8.5°
